EN

Hourly Weather Abohar

Today, 25 November, Wednesday

Time Temperature Precipitation Wind Pressure Humidity
00:00 +17°C° 0 mm 0 mps 745 mmHg 39%
01:00 +16°C° 0 mm 0 mps 744 mmHg 41%
02:00 +15°C° 0 mm 0 mps 744 mmHg 42%
03:00 +16°C° 0 mm 0 mps 744 mmHg 41%
04:00 +18°C° 0 mm 1 mps 745 mmHg 41%
05:00 +19°C° 0 mm 1 mps 744 mmHg 38%
06:00 +19°C° 0 mm 1 mps 745 mmHg 36%
07:00 +20°C° 0 mm 1 mps 745 mmHg 35%
08:00 +20°C° 0 mm 1 mps 746 mmHg 33%
09:00 +22°C° 0 mm 1 mps 746 mmHg 29%
10:00 +23°C° 0 mm 1 mps 746 mmHg 25%
11:00 +25°C° 0 mm 2 mps 746 mmHg 20%
12:00 +25°C° 0 mm 2 mps 746 mmHg 19%
13:00 +26°C° 0 mm 2 mps 745 mmHg 18%
14:00 +27°C° 0 mm 2 mps 745 mmHg 17%
15:00 +25°C° 0 mm 3 mps 745 mmHg 25%
16:00 +22°C° 0 mm 3 mps 745 mmHg 33%
17:00 +17°C° 0 mm 5 mps 745 mmHg 48%
18:00 +18°C° 0 mm 4 mps 745 mmHg 53%
19:00 +17°C° 0 mm 2 mps 745 mmHg 57%
20:00 +16°C° 0 mm 1 mps 746 mmHg 62%
21:00 +16°C° 0 mm 1 mps 746 mmHg 61%
22:00 +16°C° 0 mm 1 mps 746 mmHg 61%
23:00 +16°C° 0 mm 2 mps 747 mmHg 60%

Tomorrow, 26 November, Thursday

Time Temperature Precipitation Wind Pressure Humidity
00:00 +16°C° 0 mm 2 mps 747 mmHg 62%
01:00 +15°C° 0 mm 2 mps 747 mmHg 63%
02:00 +14°C° 0 mm 2 mps 746 mmHg 65%
03:00 +14°C° 0 mm 2 mps 747 mmHg 67%
04:00 +14°C° 0 mm 2 mps 747 mmHg 69%
05:00 +12°C° 0 mm 3 mps 747 mmHg 71%
06:00 +13°C° 0 mm 3 mps 747 mmHg 67%
07:00 +13°C° 0 mm 3 mps 748 mmHg 62%
08:00 +15°C° 0 mm 2 mps 749 mmHg 58%
09:00 +18°C° 0 mm 3 mps 749 mmHg 50%
10:00 +20°C° 0 mm 3 mps 749 mmHg 41%
11:00 +24°C° 0 mm 3 mps 749 mmHg 32%
12:00 +25°C° 0 mm 4 mps 749 mmHg 30%
13:00 +25°C° 0 mm 4 mps 748 mmHg 28%
14:00 +26°C° 0 mm 4 mps 747 mmHg 26%
15:00 +25°C° 0 mm 3 mps 747 mmHg 28%
16:00 +22°C° 0 mm 3 mps 747 mmHg 31%
17:00 +21°C° 0 mm 2 mps 747 mmHg 34%
18:00 +19°C° 0 mm 3 mps 748 mmHg 37%
19:00 +18°C° 0 mm 3 mps 748 mmHg 40%
20:00 +17°C° 0 mm 3 mps 749 mmHg 43%
21:00 +17°C° 0 mm 3 mps 749 mmHg 46%
22:00 +16°C° 0 mm 3 mps 749 mmHg 49%
23:00 +14°C° 0 mm 3 mps 749 mmHg 53%

Day after tomorrow, 27 November, Friday

Time Temperature Precipitation Wind Pressure Humidity
00:00 +14°C° 0 mm 3 mps 749 mmHg 56%
01:00 +13°C° 0 mm 3 mps 749 mmHg 59%
02:00 +13°C° 0 mm 3 mps 749 mmHg 62%
03:00 +12°C° 0 mm 3 mps 749 mmHg 64%
04:00 +13°C° 0 mm 2 mps 749 mmHg 66%
05:00 +12°C° 0 mm 2 mps 749 mmHg 69%
06:00 +13°C° 0 mm 2 mps 749 mmHg 65%
07:00 +14°C° 0 mm 2 mps 749 mmHg 61%
08:00 +13°C° 0 mm 3 mps 750 mmHg 57%
09:00 +17°C° 0 mm 3 mps 750 mmHg 49%
10:00 +20°C° 0 mm 3 mps 750 mmHg 40%
11:00 +22°C° 0 mm 3 mps 750 mmHg 32%
12:00 +25°C° 0 mm 3 mps 750 mmHg 28%
13:00 +26°C° 0 mm 3 mps 749 mmHg 24%
14:00 +27°C° 0 mm 3 mps 748 mmHg 20%
15:00 +25°C° 0 mm 2 mps 748 mmHg 22%
16:00 +24°C° 0 mm 2 mps 748 mmHg 24%
17:00 +22°C° 0 mm 1 mps 747 mmHg 26%
18:00 +20°C° 0 mm 2 mps 748 mmHg 28%
19:00 +19°C° 0 mm 2 mps 748 mmHg 30%
20:00 +18°C° 0 mm 2 mps 748 mmHg 32%
21:00 +17°C° 0 mm 2 mps 748 mmHg 34%
22:00 +17°C° 0 mm 2 mps 748 mmHg 35%
23:00 +16°C° 0 mm 2 mps 748 mmHg 36%

28 November, Saturday

Time Temperature Precipitation Wind Pressure Humidity
00:00 +16°C° 0 mm 2 mps 748 mmHg 37%
01:00 +15°C° 0 mm 2 mps 748 mmHg 38%
02:00 +14°C° 0 mm 2 mps 748 mmHg 39%
03:00 +14°C° 0 mm 2 mps 747 mmHg 39%
04:00 +14°C° 0 mm 2 mps 747 mmHg 39%
05:00 +13°C° 0 mm 2 mps 747 mmHg 39%
06:00 +14°C° 0 mm 2 mps 747 mmHg 35%
07:00 +15°C° 0 mm 2 mps 748 mmHg 32%
08:00 +16°C° 0 mm 2 mps 748 mmHg 28%
09:00 +19°C° 0 mm 2 mps 748 mmHg 24%
10:00 +21°C° 0 mm 2 mps 748 mmHg 20%
11:00 +25°C° 0 mm 3 mps 748 mmHg 15%
12:00 +26°C° 0 mm 3 mps 748 mmHg 14%
13:00 +27°C° 0 mm 3 mps 747 mmHg 13%
14:00 +29°C° 0 mm 3 mps 746 mmHg 12%
15:00 +27°C° 0 mm 2 mps 746 mmHg 13%
16:00 +25°C° 0 mm 2 mps 746 mmHg 14%
17:00 +23°C° 0 mm 1 mps 745 mmHg 16%
18:00 +22°C° 0 mm 1 mps 746 mmHg 17%
19:00 +21°C° 0 mm 1 mps 746 mmHg 18%
20:00 +20°C° 0 mm 1 mps 746 mmHg 19%
21:00 +19°C° 0 mm 1 mps 746 mmHg 19%
22:00 +19°C° 0 mm 1 mps 746 mmHg 20%
23:00 +18°C° 0 mm 1 mps 746 mmHg 20%

29 November, Sunday

Time Temperature Precipitation Wind Pressure Humidity
00:00 +18°C° 0 mm 1 mps 746 mmHg 21%
01:00 +16°C° 0 mm 1 mps 746 mmHg 21%
02:00 +16°C° 0 mm 1 mps 746 mmHg 21%
03:00 +15°C° 0 mm 1 mps 745 mmHg 22%
04:00 +14°C° 0 mm 0 mps 745 mmHg 22%
05:00 +14°C° 0 mm 0 mps 745 mmHg 22%
06:00 +15°C° 0 mm 0 mps 746 mmHg 20%
07:00 +18°C° 0 mm 1 mps 746 mmHg 19%
08:00 +19°C° 0 mm 1 mps 747 mmHg 18%
09:00 +22°C° 0 mm 1 mps 747 mmHg 15%
10:00 +24°C° 0 mm 2 mps 747 mmHg 13%
11:00 +27°C° 0 mm 2 mps 747 mmHg 10%
12:00 +28°C° 0 mm 2 mps 746 mmHg 9%
13:00 +29°C° 0 mm 2 mps 746 mmHg 8%
14:00 +30°C° 0 mm 2 mps 745 mmHg 7%
15:00 +28°C° 0 mm 2 mps 745 mmHg 8%
16:00 +25°C° 0 mm 1 mps 745 mmHg 10%
17:00 +23°C° 0 mm 1 mps 744 mmHg 11%
18:00 +22°C° 0 mm 1 mps 744 mmHg 11%
19:00 +19°C° 0 mm 0 mps 745 mmHg 12%
20:00 +18°C° 0 mm 0 mps 745 mmHg 13%
21:00 +20°C° 0 mm 1 mps 745 mmHg 13%
22:00 +20°C° 0 mm 1 mps 745 mmHg 13%
23:00 +19°C° 0 mm 1 mps 745 mmHg 14%

30 November, Monday

Time Temperature Precipitation Wind Pressure Humidity
00:00 +19°C° 0 mm 1 mps 745 mmHg 14%
01:00 +18°C° 0 mm 1 mps 744 mmHg 15%
02:00 +16°C° 0 mm 1 mps 744 mmHg 15%
03:00 +16°C° 0 mm 1 mps 744 mmHg 16%
04:00 +16°C° 0 mm 1 mps 744 mmHg 16%
05:00 +15°C° 0 mm 1 mps 744 mmHg 17%
06:00 +16°C° 0 mm 1 mps 744 mmHg 16%
07:00 +18°C° 0 mm 1 mps 745 mmHg 15%
08:00 +19°C° 0 mm 1 mps 745 mmHg 15%
09:00 +22°C° 0 mm 1 mps 745 mmHg 13%
10:00 +25°C° 0 mm 1 mps 745 mmHg 11%
11:00 +28°C° 0 mm 2 mps 745 mmHg 9%
12:00 +29°C° 0 mm 2 mps 745 mmHg 8%
13:00 +30°C° 0 mm 2 mps 744 mmHg 8%
14:00 +31°C° 0 mm 3 mps 744 mmHg 8%
15:00 +29°C° 0 mm 2 mps 743 mmHg 9%
16:00 +26°C° 0 mm 2 mps 743 mmHg 11%
17:00 +24°C° 0 mm 1 mps 743 mmHg 12%
18:00 +23°C° 0 mm 1 mps 743 mmHg 13%
19:00 +22°C° 0 mm 1 mps 744 mmHg 14%
20:00 +19°C° 0 mm 0 mps 744 mmHg 15%
21:00 +21°C° 0 mm 1 mps 744 mmHg 15%
22:00 +20°C° 0 mm 1 mps 744 mmHg 16%
23:00 +20°C° 0 mm 1 mps 745 mmHg 17%
Show more